• In Uzbekistan
  • List of Countries
  • For 7 days
  • Water Temperature
  • Satellite Maps
  • Weather Map
  • Weather Widgets
  • user-avatar
    Login

    Hourly Weather Patmos

    Today, 23 August, Wednesday

    Time Temperature Precipitation Wind Pressure Humidity
    00:00 +23°C° 0 mm 6 mps 757 mmHg 70%
    01:00 +23°C° 0 mm 6 mps 757 mmHg 72%
    02:00 +22°C° 0 mm 7 mps 757 mmHg 72%
    03:00 +22°C° 0 mm 7 mps 757 mmHg 75%
    04:00 +21°C° 0 mm 7 mps 757 mmHg 79%
    05:00 +21°C° 0 mm 7 mps 757 mmHg 82%
    06:00 +22°C° 0 mm 7 mps 757 mmHg 75%
    07:00 +24°C° 0 mm 7 mps 757 mmHg 67%
    08:00 +27°C° 0 mm 7 mps 757 mmHg 59%
    09:00 +29°C° 0 mm 7 mps 757 mmHg 51%
    10:00 +32°C° 0 mm 7 mps 758 mmHg 42%
    11:00 +34°C° 0 mm 6 mps 758 mmHg 34%
    12:00 +35°C° 0 mm 7 mps 758 mmHg 30%
    13:00 +36°C° 0 mm 7 mps 758 mmHg 27%
    14:00 +37°C° 0 mm 9 mps 758 mmHg 27%
    15:00 +37°C° 0 mm 9 mps 758 mmHg 27%
    16:00 +35°C° 0 mm 9 mps 758 mmHg 27%
    17:00 +35°C° 0 mm 9 mps 757 mmHg 28%
    18:00 +32°C° 0 mm 9 mps 758 mmHg 33%
    19:00 +29°C° 0 mm 9 mps 758 mmHg 38%
    20:00 +27°C° 0 mm 9 mps 758 mmHg 43%
    21:00 +26°C° 0 mm 9 mps 758 mmHg 46%
    22:00 +24°C° 0 mm 9 mps 758 mmHg 48%
    23:00 +23°C° 0 mm 9 mps 758 mmHg 51%

    Tomorrow, 24 August, Thursday

    Time Temperature Precipitation Wind Pressure Humidity
    00:00 +22°C° 0 mm 9 mps 758 mmHg 54%
    01:00 +21°C° 0 mm 9 mps 758 mmHg 57%
    02:00 +21°C° 0 mm 9 mps 758 mmHg 60%
    03:00 +19°C° 0 mm 9 mps 758 mmHg 63%
    04:00 +19°C° 0 mm 9 mps 758 mmHg 66%
    05:00 +19°C° 0 mm 9 mps 757 mmHg 68%
    06:00 +21°C° 0 mm 9 mps 758 mmHg 63%
    07:00 +23°C° 0 mm 9 mps 758 mmHg 58%
    08:00 +26°C° 0 mm 9 mps 758 mmHg 53%
    09:00 +29°C° 0 mm 9 mps 758 mmHg 45%
    10:00 +33°C° 0 mm 9 mps 758 mmHg 38%
    11:00 +37°C° 0 mm 9 mps 758 mmHg 30%
    12:00 +38°C° 0 mm 9 mps 758 mmHg 27%
    13:00 +39°C° 0 mm 10 mps 758 mmHg 24%
    14:00 +40°C° 0 mm 10 mps 758 mmHg 21%
    15:00 +41°C° 0 mm 11 mps 758 mmHg 20%
    16:00 +39°C° 0 mm 11 mps 757 mmHg 20%
    17:00 +39°C° 0 mm 12 mps 757 mmHg 20%
    18:00 +36°C° 0 mm 12 mps 757 mmHg 24%
    19:00 +32°C° 0 mm 11 mps 758 mmHg 27%
    20:00 +28°C° 0 mm 11 mps 758 mmHg 31%
    21:00 +27°C° 0 mm 11 mps 758 mmHg 35%
    22:00 +26°C° 0 mm 11 mps 758 mmHg 40%
    23:00 +23°C° 0 mm 10 mps 758 mmHg 44%

    Day after tomorrow, 25 August, Friday

    Time Temperature Precipitation Wind Pressure Humidity
    00:00 +23°C° 0 mm 10 mps 758 mmHg 47%
    01:00 +22°C° 0 mm 10 mps 758 mmHg 50%
    02:00 +22°C° 0 mm 10 mps 758 mmHg 52%
    03:00 +21°C° 0 mm 10 mps 757 mmHg 53%
    04:00 +21°C° 0 mm 10 mps 757 mmHg 53%
    05:00 +21°C° 0 mm 9 mps 757 mmHg 54%
    06:00 +23°C° 0 mm 9 mps 757 mmHg 48%
    07:00 +26°C° 0 mm 9 mps 758 mmHg 43%
    08:00 +28°C° 0 mm 9 mps 758 mmHg 37%
    09:00 +32°C° 0 mm 9 mps 758 mmHg 32%
    10:00 +35°C° 0 mm 9 mps 758 mmHg 27%
    11:00 +39°C° 0 mm 8 mps 758 mmHg 23%
    12:00 +40°C° 0 mm 8 mps 758 mmHg 21%
    13:00 +41°C° 0 mm 8 mps 757 mmHg 19%
    14:00 +44°C° 0 mm 8 mps 757 mmHg 17%
    15:00 +43°C° 0 mm 9 mps 757 mmHg 17%
    16:00 +43°C° 0 mm 9 mps 756 mmHg 16%
    17:00 +43°C° 0 mm 9 mps 756 mmHg 16%
    18:00 +39°C° 0 mm 9 mps 756 mmHg 20%
    19:00 +36°C° 0 mm 10 mps 756 mmHg 24%
    20:00 +32°C° 0 mm 10 mps 757 mmHg 28%
    21:00 +29°C° 0 mm 9 mps 757 mmHg 34%
    22:00 +28°C° 0 mm 9 mps 757 mmHg 41%
    23:00 +26°C° 0 mm 9 mps 757 mmHg 48%

    26 August, Saturday

    Time Temperature Precipitation Wind Pressure Humidity
    00:00 +24°C° 0 mm 8 mps 757 mmHg 52%
    01:00 +23°C° 0 mm 8 mps 756 mmHg 55%
    02:00 +23°C° 0 mm 8 mps 756 mmHg 59%
    03:00 +22°C° 0 mm 8 mps 756 mmHg 59%
    04:00 +22°C° 0 mm 8 mps 756 mmHg 58%
    05:00 +22°C° 0 mm 8 mps 756 mmHg 58%
    06:00 +24°C° 0 mm 8 mps 756 mmHg 52%
    07:00 +27°C° 0 mm 8 mps 756 mmHg 46%
    08:00 +29°C° 0 mm 8 mps 757 mmHg 40%
    09:00 +33°C° 0 mm 7 mps 757 mmHg 33%
    10:00 +36°C° 0 mm 7 mps 757 mmHg 27%
    11:00 +40°C° 0 mm 7 mps 757 mmHg 20%
    12:00 +41°C° 0 mm 7 mps 756 mmHg 18%
    13:00 +43°C° 0 mm 8 mps 756 mmHg 16%
    14:00 +44°C° 0 mm 8 mps 756 mmHg 14%
    15:00 +43°C° 0 mm 8 mps 756 mmHg 15%
    16:00 +43°C° 0 mm 9 mps 755 mmHg 15%
    17:00 +42°C° 0 mm 9 mps 755 mmHg 16%
    18:00 +38°C° 0 mm 9 mps 755 mmHg 22%
    19:00 +34°C° 0 mm 9 mps 755 mmHg 27%
    20:00 +31°C° 0 mm 9 mps 755 mmHg 33%
    21:00 +29°C° 0 mm 8 mps 755 mmHg 36%
    22:00 +28°C° 0 mm 8 mps 755 mmHg 40%
    23:00 +27°C° 0 mm 8 mps 755 mmHg 43%

    27 August, Sunday

    Time Temperature Precipitation Wind Pressure Humidity
    00:00 +26°C° 0 mm 7 mps 755 mmHg 47%
    01:00 +24°C° 0 mm 7 mps 755 mmHg 51%
    02:00 +23°C° 0 mm 7 mps 755 mmHg 55%
    03:00 +23°C° 0 mm 7 mps 755 mmHg 54%
    04:00 +22°C° 0 mm 7 mps 755 mmHg 54%
    05:00 +22°C° 0 mm 7 mps 754 mmHg 54%
    06:00 +24°C° 0 mm 7 mps 755 mmHg 48%
    07:00 +27°C° 0 mm 7 mps 755 mmHg 42%
    08:00 +29°C° 0 mm 7 mps 755 mmHg 36%
    09:00 +33°C° 0 mm 7 mps 755 mmHg 30%
    10:00 +36°C° 0 mm 7 mps 755 mmHg 24%
    11:00 +40°C° 0 mm 7 mps 755 mmHg 18%
    12:00 +41°C° 0 mm 7 mps 755 mmHg 17%
    13:00 +43°C° 0 mm 7 mps 754 mmHg 15%
    14:00 +44°C° 0 mm 8 mps 754 mmHg 14%
    15:00 +43°C° 0 mm 8 mps 754 mmHg 16%
    16:00 +41°C° 0 mm 8 mps 754 mmHg 18%
    17:00 +40°C° 0 mm 9 mps 754 mmHg 20%
    18:00 +37°C° 0 mm 9 mps 754 mmHg 29%
    19:00 +32°C° 0 mm 9 mps 754 mmHg 37%
    20:00 +28°C° 0 mm 8 mps 754 mmHg 46%
    21:00 +28°C° 0 mm 8 mps 754 mmHg 46%
    22:00 +27°C° 0 mm 8 mps 754 mmHg 47%
    23:00 +27°C° 0 mm 7 mps 754 mmHg 47%

    28 August, Monday

    Time Temperature Precipitation Wind Pressure Humidity
    00:00 +26°C° 0 mm 7 mps 754 mmHg 50%
    01:00 +24°C° 0 mm 7 mps 753 mmHg 53%
    02:00 +23°C° 0 mm 7 mps 753 mmHg 56%
    03:00 +23°C° 0 mm 6 mps 753 mmHg 56%
    04:00 +22°C° 0 mm 6 mps 753 mmHg 57%
    05:00 +22°C° 0 mm 6 mps 753 mmHg 57%
    06:00 +24°C° 0 mm 6 mps 753 mmHg 50%
    07:00 +27°C° 0 mm 6 mps 753 mmHg 43%
    08:00 +30°C° 0 mm 6 mps 754 mmHg 36%
    09:00 +34°C° 0 mm 6 mps 754 mmHg 30%
    10:00 +38°C° 0 mm 6 mps 754 mmHg 25%
    11:00 +40°C° 0 mm 6 mps 754 mmHg 19%
    12:00 +41°C° 0 mm 6 mps 753 mmHg 19%
    13:00 +42°C° 0 mm 6 mps 753 mmHg 18%
    14:00 +43°C° 0 mm 7 mps 753 mmHg 18%
    15:00 +41°C° 0 mm 7 mps 753 mmHg 22%
    16:00 +40°C° 0 mm 7 mps 752 mmHg 25%
    17:00 +39°C° 0 mm 8 mps 752 mmHg 29%
    18:00 +35°C° 0 mm 8 mps 752 mmHg 39%
    19:00 +32°C° 0 mm 8 mps 753 mmHg 49%
    20:00 +29°C° 0 mm 7 mps 753 mmHg 59%
    21:00 +28°C° 0 mm 7 mps 753 mmHg 59%
    22:00 +27°C° 0 mm 7 mps 753 mmHg 59%
    23:00 +27°C° 0 mm 6 mps 753 mmHg 59%
    Show more